Regional Weather Roundup
Issued by NWS State College, PA

Home | Current Version | Previous Version | Text Only | Print | Product List | Glossary Off
Versions: 1 2 3 4 5 6 7 8 9 10 11 12 13 14 15 16 17 18 19 20 21 22 23 24 25 26 27 28 29 30 31 32 33 34 35 36 37 38 39 40 41 42 43 44 45 46 47 48 49 50

000
ASUS41 KCTP 032103
RWRCTP

REGIONAL WEATHER ROUNDUP
NATIONAL WEATHER SERVICE STATE COLLEGE PA
400 PM EST SAT DEC 03 2016

Note: "fair" indicates few or no clouds below 12,000 feet with no
significant weather and/or obstructions to visibility.

* = STATION THAT DOES NOT REPORT PRECIPITATION /E.G. RAIN...SNOW...ETC/
    THUNDER OR FOG.

PAZ002>004-007>009-013>016-020>023-029>032-032200-
WESTERN PENNSYLVANIA

CITY           SKY/WX    TMP DP  RH WIND       PRES   REMARKS
ERIE           CLOUDY    42  34  73 W8        30.25F
MEADVILLE      CLOUDY    37  31  78 W9        30.24R
FRANKLIN*        N/A     37  28  70 W9        30.25R
NEW CASTLE     CLOUDY    38  32  79 W9        30.29S
BEAVER COUNTY  CLOUDY    37  30  75 W8        30.28R
BUTLER*        CLOUDY    36  28  75 W8        30.30R
PITTSBURGH INT CLOUDY    39  29  67 W8        30.28R
PITTSBURGH     CLOUDY    36  27  69 SW8       30.28R
INDIANA*       CLOUDY    37  32  81 W15       30.27S
LATROBE        CLOUDY    36  28  75 SW12      30.30R
WASHINGTON CO* CLOUDY    36  27  69 W5        30.30S
$$

PAZ004>006-010>012-017>019-024>028-033>037-041-042-045-046-049>053-032200-
CENTRAL PENNSYLVANIA

CITY           SKY/WX    TMP DP  RH WIND       PRES   REMARKS
BRADFORD       CLOUDY    34  32  92 NW12      30.15F
DUBOIS         CLOUDY    36  31  82 W9        30.19R
CLEARFIELD     CLOUDY    39  31  72 W10G24    30.20R
JOHNSTOWN      CLOUDY    32  28  85 W14       30.20R
ALTOONA        CLOUDY    39  29  67 W10       30.22R
STATE COLLEGE  CLOUDY    39  32  75 W8        30.19R
WILLIAMSPORT   CLOUDY    42  33  70 NW10      30.16R
SELINSGROVE    CLOUDY    44  34  67 W7        30.17R
FT INDIANTOWN  NOT AVBL
CAPITAL CITY   CLOUDY    47  29  49 W12       30.19R
HARRISBURG     MOCLDY    46  32  58 NW13      30.18R
YORK           MOCLDY    45  30  55 NW17      30.19R
$$

PAZ038>040-043-044-047-048-054-055-060>062-067>071-032200-
EASTERN PENNSYLVANIA

CITY           SKY/WX    TMP DP  RH WIND       PRES   REMARKS
SCRANTON       CLOUDY    41  28  60 NW12      30.13R
MOUNT POCONO   CLOUDY    35  25  66 NW16G30   30.06R
ALLENTOWN      CLOUDY    46  27  47 NW10G22   30.13R
QUAKERTOWN*    CLOUDY    45  27  49 NW12G18   30.12R
READING        MOCLDY    46  31  55 W9        30.15R
LANCASTER      CLOUDY    46  33  60 NW16      30.17R
COATESVILLE    CLOUDY    45  32  61 NW13G23   30.17R
POTTSTOWN      MOCLDY    45  28  51 NW13G24   30.15R
BLUE BELL      CLOUDY    45  30  57 W8        30.11R
DOYLESTOWN     CLOUDY    47  29  49 NW12G21   30.10R
WILLOW GROVE   NOT AVBL
NORTH PHILA    CLOUDY    49  28  44 NW14G21   30.13R
PHILADELPHIA   MOCLDY    49  31  49 NW17      30.15R
$$




USA.gov is the U.S. government's official web portal to all federal, state and local government web resources and services.